Content
SEND FEEDBACK

Daily
Averages
Monthly
Summary
United States of America

ASATDAS, GUAM


Home > North America > United States > Guam
Elevation: 186 meters     Latitude: 13 35N     Longitude: 144 56E

WEATHER
 
SELECT A DAY
Number of Records: 213,834;   Date Range: 1/1/95 - 10/22/14
 
SHARE

PRINT THIS DATA

[ ← Previous Day ]
WEATHER ALMANAC - 8 JANUARY, 2014
[ Next Day → ]
[ °F ]   °C
Weather ElementAverageHighLow
Temperature27.4 °C30 °C (12:54 pm)25 °C (4:54 am)
Dewpoint21.8 °C22.8 °C (6:54 am)21 °C (10:17 am)
Humidity71.9 %88 % (6:54 am)61 % (11:54 am)
Barometer1010.2 hPa1012.2 hPa (10:17 am)1008.5 hPa (2:54 pm)
Wind Speed21.9 km/h29.6 km/h (9:54 am)
Wind Gust37 km/h (10:17 am)
Weather ElementAverage
Visibility16.1 km
Wind DirectionENE (65.2 °)

Weather ElementTotal
Precipitation---
Cooling Degree Days9.2 (Base 18.3)
Growing Degree Days17.5 (Base 10)
Averaged from 25 records on 8 January, 2014
WEATHER CONDITIONS BREAKOUT
WIND DIRECTION BREAKOUT
WEATHER BY HOUR - 8 JANUARY, 2014
[ °F ]   °C
Local TimeTemperatureDewpointHumidityBarometerVisibilityWind DirectionWind SpeedGust SpeedPrecipitationEventsConditions
1:54 AM25.6 °C22.2 °C81 %1009.8 hPa16.1 kmNE (50°)18.5 km/hClear
2:54 AM25.6 °C22.2 °C81 %1009.5 hPa16.1 kmNE (40°)18.5 km/hClear
3:54 AM25.6 °C22.2 °C81 %1009.5 hPa16.1 kmNE (40°)16.7 km/hPartly Cloudy
4:54 AM25 °C22.2 °C84 %1009.1 hPa16.1 kmNE (40°)16.7 km/h0 mmPartly Cloudy
5:54 AM25 °C22.2 °C84 %1009.5 hPa16.1 kmNE (50°)16.7 km/hClear
6:54 AM25 °C22.8 °C88 %1009.8 hPa16.1 kmNE (40°)16.7 km/hClear
7:54 AM26.7 °C22.2 °C76 %1010.5 hPa16.1 kmENE (60°)18.5 km/hPartly Cloudy
8:54 AM28.3 °C22.8 °C72 %1011.2 hPa16.1 kmENE (70°)20.4 km/hPartly Cloudy
9:54 AM28.9 °C21.7 °C65 %1011.2 hPa16.1 kmNE (50°)29.6 km/hPartly Cloudy
10:17 AM29 °C21 °C62 %1012.2 hPa16.1 kmENE (70°)24.1 km/h37 km/hMostly Cloudy
10:45 AM28 °C21 °C66 %1012.2 hPa16.1 kmENE (60°)27.8 km/h37 km/hScattered Clouds
10:54 AM28.9 °C21.1 °C63 %1011.2 hPa16.1 kmNE (50°)29.6 km/hMostly Cloudy
11:54 AM29.4 °C21.1 °C61 %1010.5 hPa16.1 kmNE (50°)29.6 km/hMostly Cloudy
12:54 PM30 °C21.7 °C61 %1009.5 hPa16.1 kmEast (100°)24.1 km/hMostly Cloudy
1:54 PM29.4 °C21.7 °C63 %1008.8 hPa16.1 kmEast (100°)24.1 km/hScattered Clouds
2:54 PM29.4 °C21.7 °C63 %1008.5 hPa16.1 kmEast (80°)25.9 km/h35.2 km/hPartly Cloudy
3:54 PM28.9 °C21.7 °C65 %1008.8 hPa16.1 kmEast (90°)27.8 km/hScattered Clouds
4:54 PM28.3 °C21.7 °C67 %1008.8 hPa16.1 kmEast (80°)24.1 km/h35.2 km/hPartly Cloudy
5:54 PM27.2 °C21.7 °C72 %1009.5 hPa16.1 kmEast (80°)20.4 km/hPartly Cloudy
6:54 PM27.2 °C21.1 °C69 %1010.2 hPa16.1 kmENE (70°)24.1 km/hClear
7:54 PM26.7 °C21.1 °C71 %1010.5 hPa16.1 kmEast (80°)24.1 km/hPartly Cloudy
8:54 PM26.7 °C21.7 °C74 %1010.8 hPa16.1 kmENE (70°)18.5 km/hClear
9:54 PM26.7 °C22.2 °C76 %1010.8 hPa16.1 kmENE (70°)14.8 km/hPartly Cloudy
10:54 PM26.7 °C22.2 °C76 %1010.8 hPa16.1 kmENE (70°)18.5 km/hScattered Clouds
11:54 PM26.7 °C22.2 °C76 %1010.2 hPa16.1 kmENE (70°)18.5 km/hPartly Cloudy
Hourly data recorded from PGUM, located 0 kilometers away from Asatdas, Guam







STORIES FROM OUR PARTNERS